FW8255 Weather Reports


time (UTC)temp
C
wind
direction
speed
KPH
gust
KPH
rain 1hr
cm
rain 24hr
cm
rain mn
cm
humidity
%
barometer
mb
20260503224946 13 222 14.5 22.5 0.00 0.00 0.00 46 1012.5
20260503224444 13 261 12.9 25.7 0.00 0.00 0.00 46 1012.5
20260503223942 14 210 6.4 20.9 0.00 0.00 0.00 47 1012.3
20260503223439 14 235 6.4 35.4 0.00 0.00 0.00 48 1012.5
20260503222934 13 281 11.3 20.9 0.00 0.00 0.00 47 1012.5
20260503222433 14 258 9.7 22.5 0.00 0.00 0.00 48 1012.5
20260503221931 14 248 6.4 16.1 0.00 0.00 0.00 48 1012.5
20260503221429 14 284 1.6 22.5 0.00 0.00 0.00 48 1012.6
20260503220926 14 264 3.2 12.9 0.00 0.00 0.00 48 1012.6
20260503220422 14 259 14.5 20.9 0.00 0.00 0.00 46 1012.7
20260503215919 14 248 14.5 17.7 0.00 0.00 0.00 46 1012.4
20260503215416 15 212 14.5 25.7 0.00 0.00 0.00 45 1012.4
20260503214914 14 249 19.3 25.7 0.00 0.00 0.00 46 1012.5
20260503214411 15 229 16.1 17.7 0.00 0.00 0.00 46 1012.5
20260503213908 15 255 14.5 24.1 0.00 0.00 0.00 46 1012.8
20260503213406 14 232 14.5 33.8 0.00 0.00 0.00 46 1012.6
20260503212902 14 228 14.5 24.1 0.00 0.00 0.00 46 1012.5
20260503212400 14 257 14.5 32.2 0.00 0.00 0.00 46 1012.6
20260503211857 15 230 14.5 17.7 0.00 0.00 0.00 46 1012.6
20260503211354 15 239 14.5 27.4 0.00 0.00 0.00 46 1012.5
20260503210849 15 265 6.4 20.9 0.00 0.00 0.00 47 1012.5
20260503210347 14 232 8.0 14.5 0.00 0.00 0.00 47 1012.9
20260503205842 14 253 9.7 16.1 0.00 0.00 0.00 46 1012.7
20260503205339 15 213 12.9 25.7 0.00 0.00 0.00 45 1012.5
20260503204835 15 198 12.9 32.2 0.00 0.00 0.00 46 1012.5
20260503204332 15 274 11.3 16.1 0.00 0.00 0.00 45 1012.6
20260503203829 14 224 8.0 14.5 0.00 0.00 0.00 45 1012.7
20260503203327 15 298 3.2 11.3 0.00 0.00 0.00 46 1012.6
20260503202823 15 231 11.3 22.5 0.00 0.00 0.00 44 1012.7
20260503202321 15 253 9.7 17.7 0.00 0.00 0.00 43 1012.8
20260503201819 15 239 11.3 12.9 0.00 0.00 0.00 44 1012.9
20260503201316 15 225 6.4 14.5 0.00 0.00 0.00 44 1012.8
20260503200814 15 239 12.9 22.5 0.00 0.00 0.00 42 1013.0
20260503200309 15 234 14.5 33.8 0.00 0.00 0.00 43 1013.0
20260503195807 15 238 17.7 25.7 0.00 0.00 0.00 43 1013.2
20260503195304 15 201 14.5 20.9 0.00 0.00 0.00 44 1013.3
20260503194801 15 234 9.7 27.4 0.00 0.00 0.00 45 1013.3
20260503194256 15 253 19.3 32.2 0.00 0.00 0.00 44 1013.4
20260503193753 14 258 8.0 22.5 0.00 0.00 0.00 47 1013.5
20260503193249 14 245 9.7 22.5 0.00 0.00 0.00 46 1013.5
20260503192745 13 207 6.4 24.1 0.00 0.00 0.00 49 1013.6
20260503192240 13 238 8.0 25.7 0.00 0.00 0.00 47 1013.9
20260503191737 15 231 16.1 32.2 0.00 0.00 0.00 46 1013.9
20260503191234 13 275 4.8 14.5 0.00 0.00 0.00 48 1014.0
20260503190731 14 259 12.9 25.7 0.00 0.00 0.00 45 1013.9
20260503190227 15 243 8.0 25.7 0.00 0.00 0.00 47 1014.2
20260503185725 15 261 16.1 27.4 0.00 0.00 0.00 44 1013.9
20260503185220 14 242 14.5 25.7 0.00 0.00 0.00 46 1014.0
20260503184715 14 242 11.3 22.5 0.00 0.00 0.00 45 1014.2
20260503184212 13 257 16.1 37.0 0.00 0.00 0.00 43 1014.3
20260503183708 15 205 20.9 25.7 0.00 0.00 0.00 43 1014.4
20260503183206 14 224 17.7 32.2 0.00 0.00 0.00 44 1014.4
20260503182704 14 275 12.9 17.7 0.00 0.00 0.00 47 1014.3
20260503182202 14 226 11.3 32.2 0.00 0.00 0.00 44 1014.3
20260503181658 14 222 14.5 24.1 0.00 0.00 0.00 45 1014.6
20260503181155 15 241 25.7 33.8 0.00 0.00 0.00 43 1014.6
20260503180652 15 270 12.9 25.7 0.00 0.00 0.00 46 1014.6
20260503180150 14 235 12.9 24.1 0.00 0.00 0.00 45 1014.6
20260503175647 15 286 17.7 20.9 0.00 0.00 0.00 48 1014.8
20260503175144 14 220 19.3 25.7 0.00 0.00 0.00 47 1014.8
20260503174640 14 255 8.0 11.3 0.00 0.00 0.00 50 1014.7
20260503174137 13 244 9.7 22.5 0.00 0.00 0.00 50 1014.7
20260503173632 14 248 11.3 17.7 0.00 0.00 0.00 49 1015.0
20260503173129 14 239 11.3 20.9 0.00 0.00 0.00 50 1015.1
20260503172626 14 227 17.7 35.4 0.00 0.00 0.00 51 1015.1
20260503172124 14 279 8.0 17.7 0.00 0.00 0.00 50 1015.1
20260503171620 14 278 8.0 12.9 0.00 0.00 0.00 50 1015.2
20260503171117 13 263 11.3 25.7 0.00 0.00 0.00 52 1015.2
20260503170614 13 259 8.0 17.7 0.00 0.00 0.00 52 1015.2
20260503170111 13 260 14.5 25.7 0.00 0.00 0.00 51 1015.4
20260503151006 11 260 14.5 17.7 0.00 0.00 0.00 52 1016.3
20260503150503 10 252 17.7 35.4 0.00 0.00 0.00 51 1016.3
20260503131350 7 235 11.3 12.9 0.00 0.00 0.00 57 1017.0
20260503130847 7 222 9.7 16.1 0.00 0.00 0.00 58 1016.7
20260503130344 7 255 8.0 9.7 0.00 0.00 0.00 57 1016.8
20260503110732 1 311 3.2 3.2 0.00 0.00 0.00 88 1016.4
20260503110229 0 316 0.0 1.6 0.00 0.00 0.00 92 1016.5
20260503100155 0 311 0.0 1.6 0.00 0.00 0.00 88 1016.0
20260503090115 1 303 1.6 4.8 0.00 0.00 0.00 86 1016.2
20260503081550 1 299 1.6 4.8 0.00 0.00 0.00 88 1016.2
20260503081048 1 289 1.6 3.2 0.00 0.00 0.00 87 1016.1
20260503080544 1 309 0.0 3.2 0.00 0.00 0.00 87 1016.1
20260503072518 1 279 3.2 4.8 0.00 0.00 0.00 89 1016.1
20260503072015 1 300 1.6 3.2 0.00 0.00 0.00 89 1016.0
20260503071512 2 305 1.6 1.6 0.00 0.00 0.00 89 1016.1
20260503071008 2 305 1.6 4.8 0.00 0.00 0.00 88 1016.0
20260503070505 2 309 0.0 3.2 0.00 0.00 0.00 88 1016.1
20260503054929 1 316 0.0 0.0 0.00 0.00 0.00 92 1016.4
20260503054425 1 317 0.0 0.0 0.00 0.00 0.00 92 1016.4
20260503053923 1 316 0.0 1.6 0.00 0.00 0.00 93 1016.7
20260503053420 1 311 0.0 1.6 0.00 0.00 0.00 93 1016.5
20260503052916 1 316 0.0 0.0 0.00 0.00 0.00 92 1016.4
20260503052414 1 316 0.0 0.0 0.00 0.00 0.00 91 1016.4
20260503051910 1 316 0.0 0.0 0.00 0.00 0.00 91 1016.5
20260503051406 1 317 0.0 0.0 0.00 0.00 0.00 90 1016.6
20260503050904 1 316 0.0 0.0 0.00 0.00 0.00 90 1016.5
20260503050359 2 316 0.0 0.0 0.00 0.00 0.00 89 1016.4
20260503045857 2 316 0.0 0.0 0.00 0.00 0.00 89 1016.6
20260503045354 2 314 0.0 0.0 0.00 0.00 0.00 88 1016.6
20260503044851 2 306 0.0 0.0 0.00 0.00 0.00 87 1016.7
20260503044348 2 306 0.0 1.6 0.00 0.00 0.00 86 1016.6
20260503043845 3 285 1.6 3.2 0.00 0.00 0.00 85 1016.6
20260503043342 3 315 0.0 0.0 0.00 0.00 0.00 85 1016.6
20260503042838 3 306 1.6 3.2 0.00 0.00 0.00 84 1016.8
20260503042335 3 298 1.6 4.8 0.00 0.00 0.00 83 1016.9
20260503041831 3 249 4.8 4.8 0.00 0.00 0.00 82 1016.7
20260503041328 3 296 3.2 3.2 0.00 0.00 0.00 82 1016.6
20260503040826 3 306 1.6 3.2 0.00 0.00 0.00 82 1016.8
20260503040323 3 315 0.0 4.8 0.00 0.00 0.00 82 1016.6
20260503035820 3 330 1.6 3.2 0.00 0.30 0.30 82 1016.8
20260503035317 3 302 1.6 1.6 0.00 0.30 0.30 83 1016.8
20260503034814 3 307 1.6 3.2 0.00 0.30 0.30 83 1016.9
20260503034312 3 320 0.0 1.6 0.00 0.30 0.30 82 1016.8
20260503033809 3 291 3.2 3.2 0.00 0.30 0.30 82 1016.9
20260503033306 3 234 3.2 4.8 0.00 0.30 0.30 81 1016.8
20260503032804 3 304 1.6 8.0 0.00 0.30 0.30 81 1016.8
20260503032304 3 308 1.6 1.6 0.00 0.30 0.30 82 1016.7
20260503031759 3 319 0.0 4.8 0.00 0.30 0.30 81 1016.9
20260503031258 3 315 0.0 1.6 0.00 0.30 0.30 82 1016.9
20260503030753 3 319 0.0 0.0 0.00 0.30 0.30 82 1017.1
20260503030250 3 300 1.6 1.6 0.00 0.30 0.30 81 1016.9
20260503025747 3 302 1.6 1.6 0.00 0.30 0.30 82 1017.0
20260503025244 4 308 1.6 1.6 0.00 0.30 0.30 81 1017.1
20260503024741 4 316 0.0 1.6 0.00 0.30 0.30 80 1017.0
20260503024238 4 278 3.2 3.2 0.00 0.30 0.30 80 1017.1
20260503023735 4 277 1.6 3.2 0.00 0.30 0.30 80 1017.3
20260503023232 3 316 0.0 3.2 0.00 0.30 0.30 83 1017.2
20260503022728 4 315 0.0 1.6 0.00 0.30 0.30 82 1017.2
20260503022228 4 315 0.0 1.6 0.00 0.30 0.30 81 1017.3
20260503021725 3 290 1.6 3.2 0.00 0.30 0.30 81 1017.3
20260503021221 3 308 1.6 1.6 0.00 0.30 0.30 82 1017.2
20260503020719 3 321 0.0 0.0 0.00 0.30 0.30 82 1017.3
20260503020216 3 299 1.6 1.6 0.00 0.30 0.30 82 1017.1
20260503015713 3 315 0.0 0.0 0.00 0.30 0.30 83 1017.3
20260503015210 3 316 0.0 1.6 0.00 0.30 0.30 82 1017.3
20260503014705 3 317 0.0 0.0 0.00 0.30 0.30 82 1017.3
20260503014204 3 316 0.0 0.0 0.00 0.30 0.30 81 1017.1
20260503013700 3 316 0.0 0.0 0.00 0.30 0.30 80 1017.2
20260503013158 3 316 0.0 0.0 0.00 0.30 0.30 78 1017.0
20260503012655 3 316 0.0 0.0 0.00 0.30 0.30 77 1017.1
20260503012152 4 316 0.0 0.0 0.00 0.30 0.30 76 1017.3
20260503011648 3 316 0.0 0.0 0.00 0.30 0.30 75 1017.1
20260503011146 3 316 0.0 0.0 0.00 0.30 0.30 75 1017.2
20260503010642 4 315 0.0 1.6 0.00 0.30 0.30 76 1017.2
20260503010139 4 318 0.0 0.0 0.00 0.30 0.30 78 1017.1
20260503005636 4 325 0.0 0.0 0.00 0.30 0.30 75 1016.9
20260503005133 4 325 0.0 0.0 0.00 0.30 0.30 71 1016.7
20260503004630 4 325 0.0 0.0 0.00 0.30 0.30 70 1016.9
20260503004128 4 325 0.0 0.0 0.00 0.30 0.30 72 1016.9
20260503003625 5 325 1.6 1.6 0.00 0.30 0.30 75 1016.8
20260503003122 5 324 0.0 0.0 0.00 0.30 0.30 70 1017.0
20260503002619 5 326 0.0 1.6 0.00 0.30 0.30 66 1016.8
20260503002115 5 316 0.0 0.0 0.00 0.30 0.30 66 1016.9
20260503001611 5 315 0.0 1.6 0.00 0.30 0.30 65 1016.6
20260503001109 5 316 0.0 1.6 0.00 0.30 0.30 65 1016.8
20260503000606 5 320 0.0 1.6 0.00 0.30 0.30 63 1016.9
20260503000103 5 289 3.2 3.2 0.00 0.30 0.30 64 1016.8
20260502235600 5 315 0.0 3.2 0.00 0.30 0.30 62 1016.8
20260502235058 5 318 0.0 1.6 0.00 0.30 0.30 63 1016.7
20260502234553 5 279 4.8 4.8 0.00 0.30 0.30 62 1016.8
20260502234052 5 299 1.6 3.2 0.00 0.30 0.30 62 1016.7
20260502233551 5 316 0.0 3.2 0.00 0.30 0.30 64 1016.8
20260502233049 5 303 3.2 3.2 0.00 0.30 0.30 62 1016.6
20260502232545 6 325 1.6 3.2 0.00 0.30 0.30 63 1016.7
20260502232042 6 314 3.2 3.2 0.00 0.30 0.30 64 1016.7
20260502231539 6 311 1.6 3.2 0.00 0.30 0.30 63 1016.5
20260502231037 6 316 1.6 3.2 0.00 0.30 0.30 62 1016.7
20260502230535 6 325 1.6 9.7 0.00 0.30 0.30 62 1016.8
20260502230033 6 307 1.6 4.8 0.00 0.30 0.30 62 1016.7
20260502225528 6 328 3.2 8.0 0.00 0.30 0.30 63 1016.7
20260502225026 6 308 4.8 4.8 0.00 0.30 0.30 63 1016.8